{"data":{"norad_id":47362,"epoch":"2026-09-19T12:46:33.085632Z","epoch_age_seconds":105539,"freshness":"FRESH","line1":"1 47362U 21005P   26262.53232738  .00048933  00000+0  10459-2 0  9998","line2":"2 47362  53.1539 233.8206 0001541  47.4321 312.6815 15.44375203312822","mean_motion":15.44375203,"eccentricity":0.0001541,"inclination_deg":53.1539,"raan_deg":233.8206,"arg_perigee_deg":47.4321,"mean_anomaly_deg":312.6815,"bstar":0.0010459,"rev_number":31282,"period_min":93.241590333926,"perigee_km":432.16490409685,"apogee_km":434.26416263944,"semimajor_km":6811.3515333681,"source":"CELESTRAK","updated_at":"2026-09-20T09:00:38.590496Z"}}